Wind_Speed
4 5 6 6 6 5 6 10 12 12 10 7 6 7 7 6 6 6 7 6 6 5 5 5 5 5 5 5 5 5 6 6 7 7 7 8 8 9 9 9 10 10 11 12 12 13 13 13 12
2 2 4 5 4 4 6 10 13 14 12 9 7 7 7 7 6 6 6 7 6 5 5 5 5 6 6 6 6 6 7 8 8 8 9 9 9 10 10 10 10 11 11 12 12 13 13 13 12
3 2 2 2 1 4 7 10 13 14 14 12 11 10 9 8 7 7 7 7 6 6 6 6 6 6 7 7 7 8 9 10 10 10 11 11 12 12 12 12 12 12 12 13 13 13 13 13 13
5 3 1 2 1 3 6 9 13 15 16 16 15 12 10 9 8 8 8 8 6 6 7 7 7 8 8 9 9 10 11 12 12 12 13 13 14 15 16 16 16 15 15 14 14 14 14 14 14
7 5 4 5 3 3 5 8 14 18 20 19 17 14 12 9 8 8 9 8 7 8 8 9 9 9 10 11 12 13 13 14 14 14 15 16 16 17 18 18 18 18 18 18 17 16 16 16 16
9 7 6 6 5 3 4 10 16 21 23 22 19 18 16 11 8 8 9 9 9 9 10 11 11 12 13 14 15 15 16 16 17 17 17 18 18 19 19 20 20 20 20 20 20 19 19 19 18
11 8 7 7 6 5 7 13 19 23 25 25 24 23 17 14 11 9 10 11 11 11 11 12 14 14 15 16 17 17 18 18 19 19 19 20 20 20 21 21 21 21 21 21 21 22 22 21 21
12 9 11 13 10 7 9 16 22 25 28 27 27 24 21 19 15 12 11 12 12 12 13 14 15 16 17 17 18 19 19 20 20 21 21 21 21 22 22 22 22 22 22 22 22 23 24 24 23
14 12 16 18 15 13 14 18 24 27 29 29 29 28 25 21 19 16 14 14 15 15 16 16 17 18 19 20 20 20 21 21 22 22 23 24 24 24 25 25 24 23 23 24 24 24 25 25 25
16 16 21 22 21 18 18 21 26 29 31 32 32 31 27 25 24 21 19 17 17 17 18 19 20 21 21 22 23 23 24 24 24 25 25 26 27 27 27 27 26 26 26 25 25 25 26 25 26
18 19 25 26 24 21 21 24 28 32 34 35 34 31 28 27 26 23 23 22 20 20 21 22 23 24 24 25 25 26 27 27 27 28 28 29 30 30 29 29 30 29 29 28 28 26 25 26 26
20 23 27 28 26 24 25 26 29 32 34 35 34 32 29 28 27 25 26 24 22 22 23 24 25 26 27 27 27 28 29 30 30 30 30 31 31 31 31 32 31 30 30 30 31 30 28 27 28
23 25 29 29 28 26 26 27 29 31 31 32 32 31 29 27 26 27 27 27 26 26 27 28 28 29 29 28 29 29 30 31 32 32 32 32 32 33 33 33 33 33 32 32 31 30 30 28 28
23 25 28 29 28 27 26 26 27 27 26 27 27 28 27 26 25 26 27 27 28 29 29 29 30 30 30 30 31 32 33 33 34 34 34 34 34 34 34 33 33 33 33 33 31 31 30 29 28
22 23 24 27 27 26 25 25 24 24 23 24 24 24 25 25 25 25 26 26 27 28 28 28 29 29 30 30 32 33 34 35 36 36 36 36 36 35 34 33 33 34 34 34 33 32 31 30 30
20 21 22 23 24 24 23 21 21 22 22 22 22 23 23 23 23 24 24 24 25 25 25 26 27 28 29 31 32 34 35 36 36 37 38 38 37 36 35 35 34 34 34 33 33 33 33 32 30
17 17 18 19 21 21 21 21 20 21 21 20 20 20 20 21 21 21 22 22 23 24 25 26 27 29 31 33 34 35 36 37 38 38 38 37 37 37 36 36 35 34 34 34 33 33 32 31 31
10 10 11 16 18 21 20 21 21 20 20 18 16 15 17 18 18 19 20 21 23 24 26 28 29 31 33 34 35 36 37 38 39 38 38 37 37 37 37 36 35 35 34 34 33 33 33 32 31
8 8 9 12 15 17 19 20 20 20 20 18 13 12 14 15 16 18 19 21 23 24 26 28 30 32 33 35 35 36 37 38 38 38 37 37 36 37 37 37 37 36 35 35 34 34 33 33 32
6 7 7 10 12 13 14 16 17 15 12 11 9 8 9 12 15 17 18 20 22 24 26 28 30 31 33 34 35 35 36 36 37 37 37 37 37 36 36 36 36 36 36 36 35 35 35 34 33
6 8 9 12 13 14 16 16 17 12 9 7 5 5 8 11 13 16 17 19 20 22 24 26 28 30 31 33 34 34 35 35 36 36 36 36 36 35 35 35 35 36 36 36 36 35 35 34 33
9 10 11 12 14 15 16 16 15 9 5 2 2 3 6 9 12 14 16 17 19 21 22 24 26 28 30 31 32 33 34 35 36 36 36 36 36 35 35 34 34 34 34 34 34 35 35 34 34
8 8 9 11 12 14 15 15 13 7 6 4 3 4 6 8 11 14 16 18 20 21 23 24 26 27 29 30 32 33 34 34 35 35 35 35 35 35 34 33 32 32 32 33 33 33 34 34 34
8 8 9 9 10 11 12 12 14 9 8 7 7 8 9 11 13 15 17 19 21 23 24 26 27 29 30 32 33 34 34 35 35 35 35 35 36 36 36 34 33 32 32 33 33 32 32 33 34
8 8 8 7 7 8 9 10 13 11 9 8 9 10 12 14 16 18 20 22 24 26 28 29 31 32 33 34 35 36 36 36 36 36 37 37 37 38 38 37 36 35 34 33 33 33 33 33 33
5 8 8 7 7 8 8 10 12 12 11 11 12 14 17 19 20 22 24 26 28 30 31 33 34 35 36 37 37 37 38 38 38 38 38 39 39 39 40 40 40 39 37 36 35 34 34 34 34
5 6 6 6 7 8 7 9 11 12 13 14 17 19 21 22 24 25 28 30 31 33 35 36 37 37 37 38 38 38 38 38 39 39 39 39 40 40 41 41 41 41 40 39 39 38 37 36 36
7 7 6 5 7 8 10 11 14 14 15 17 19 21 23 24 26 28 31 33 34 36 37 38 38 39 39 38 38 38 39 39 39 40 40 40 41 41 41 41 41 42 42 41 41 41 41 40 39
7 7 7 7 9 12 15 16 16 16 17 19 21 23 25 27 29 30 33 35 36 37 38 38 39 39 39 39 39 40 40 40 40 41 41 41 41 41 41 41 42 42 42 43 43 43 44 44 43
9 9 8 9 12 15 17 17 17 18 20 21 23 24 26 27 29 32 34 36 36 37 38 39 39 39 39 39 40 41 41 42 42 42 42 42 41 41 41 41 41 41 42 43 44 45 46 47 47
Wind_Direction
71 86 84 62 43 28 24 21 6 357 350 348 338 328 333 337 332 325 324 319 327 343 338 324 315 312 307 306 309 313 320 327 332 334 335 335 335 335 334 333 333 334 334 335 336 339 342 343 348
30 69 78 57 36 5 13 12 355 340 339 338 326 326 332 332 326 321 315 317 329 338 328 318 310 305 302 304 308 313 320 324 325 325 324 323 321 321 320 319 319 319 319 320 322 323 327 328 331
325 338 73 71 26 351 2 356 338 333 329 326 323 327 329 327 321 317 318 326 331 324 317 310 306 303 304 308 313 314 317 318 318 316 314 314 312 310 307 305 303 303 303 304 306 308 309 312 315
303 280 198 204 263 11 2 341 323 319 319 319 319 319 322 321 319 319 318 322 321 312 307 306 305 304 306 307 307 307 310 311 311 309 307 307 305 302 300 298 295 292 291 291 292 294 295 298 299
290 267 229 226 265 338 345 312 298 305 309 313 316 318 320 317 315 313 311 310 307 303 301 303 305 304 303 304 304 304 306 307 306 306 304 304 303 300 297 295 292 289 286 285 283 283 284 287 287
285 268 234 238 248 271 282 283 287 293 300 306 311 311 312 311 303 300 299 299 299 299 300 301 301 300 300 300 301 303 304 304 303 304 304 304 304 301 298 295 292 289 285 282 279 276 276 277 278
278 262 220 210 203 216 246 267 275 285 292 298 303 306 305 305 294 290 288 291 296 295 295 298 299 299 299 299 301 302 303 304 304 303 302 302 304 303 300 298 295 289 285 281 278 274 271 270 271
266 239 201 193 196 207 237 261 271 278 284 292 299 302 303 302 294 290 286 288 290 293 295 297 298 299 299 299 300 300 301 304 306 305 303 303 304 304 302 299 298 293 287 283 277 274 269 266 264
256 219 195 193 197 211 236 257 268 274 281 288 294 299 300 299 294 289 288 287 287 290 291 292 295 297 299 301 301 301 302 304 305 305 304 303 302 301 300 299 298 295 291 286 279 274 269 263 260
248 210 199 205 214 225 243 257 267 273 279 285 290 295 297 295 293 287 288 287 284 284 286 288 290 293 295 298 300 300 300 301 303 303 302 301 301 299 298 297 295 294 292 289 284 278 271 264 260
242 210 205 211 220 234 247 257 265 272 276 281 286 290 292 289 287 284 289 286 281 280 280 284 286 288 290 293 296 296 296 297 299 300 299 298 298 298 296 294 294 291 290 288 286 283 278 269 262
233 211 208 215 225 236 247 254 261 267 273 278 282 285 286 286 284 287 291 284 281 281 282 284 283 283 285 289 292 292 293 294 295 296 296 296 296 295 292 292 290 288 287 286 286 285 282 278 270
226 214 211 217 227 238 249 255 261 266 271 276 280 283 285 286 284 287 289 289 289 291 290 289 286 285 286 286 287 289 291 291 292 292 293 293 293 293 292 290 289 287 284 284 286 286 285 281 279
225 220 217 221 231 240 249 257 263 267 272 275 278 282 286 287 287 287 288 288 289 290 290 288 290 288 289 291 291 291 291 292 292 292 292 293 292 292 291 289 287 286 283 280 281 282 281 281 281
222 222 220 224 233 243 250 255 260 265 268 273 277 282 286 288 289 288 288 288 289 290 290 290 291 292 292 292 292 292 293 293 294 294 294 293 292 291 289 288 286 284 282 279 279 278 277 278 278
217 219 220 229 238 245 250 254 258 263 266 272 277 279 283 286 287 287 287 287 288 289 290 291 291 291 291 292 292 292 293 293 294 294 293 292 291 290 288 287 285 283 281 279 278 277 276 276 277
208 215 222 231 241 250 255 255 259 262 268 271 275 277 281 283 285 285 286 286 288 290 291 291 291 291 291 292 291 291 292 292 292 292 292 291 290 288 287 286 284 282 280 278 278 276 275 275 274
206 223 235 243 252 256 261 263 263 266 270 270 267 272 277 281 283 284 286 288 289 290 291 291 292 291 291 292 292 292 292 292 292 292 291 289 288 287 286 285 284 282 279 278 276 273 273 273 272
234 246 267 264 269 271 271 266 270 270 276 270 259 266 276 280 284 286 288 290 291 291 292 293 293 293 293 294 294 294 294 293 293 292 290 288 287 285 284 283 282 280 279 277 276 274 273 273 271
264 270 294 301 306 300 292 291 296 293 291 261 245 258 278 287 292 293 293 294 293 294 294 295 295 295 295 295 296 296 295 293 292 291 290 288 286 284 283 281 280 278 277 276 274 273 272 271 269
329 334 332 335 334 332 324 320 321 317 302 270 252 263 285 291 295 298 297 297 297 298 298 298 297 297 296 297 297 297 297 296 295 293 292 290 287 285 282 280 278 277 275 274 273 271 270 268 268
355 347 349 349 349 350 350 345 339 333 319 244 227 282 294 299 304 307 307 305 305 305 304 303 301 300 300 300 300 300 299 298 297 296 295 293 290 288 285 283 280 278 275 273 271 269 267 265 264
346 349 353 355 357 2 6 10 11 28 41 46 38 354 328 322 321 320 318 316 313 312 310 309 307 306 305 305 304 303 302 302 300 299 297 295 293 291 288 285 282 279 276 274 271 269 267 265 263
334 338 344 348 353 10 23 27 31 44 50 43 19 354 344 340 334 329 325 321 318 317 316 315 313 312 311 310 309 308 307 306 304 302 300 298 295 293 290 287 284 281 277 275 273 270 267 265 262
318 320 323 333 350 5 15 26 29 37 33 17 1 350 346 343 339 333 329 327 325 325 323 320 318 317 315 314 312 310 309 307 306 304 301 299 296 294 291 288 285 282 279 276 273 271 268 265 262
314 316 312 319 336 352 4 11 13 18 16 7 356 352 349 347 342 338 334 331 330 327 325 323 321 320 317 315 313 311 310 308 306 304 301 299 296 294 291 289 286 282 279 275 273 272 269 265 261
350 340 342 337 339 339 346 354 360 7 8 1 356 353 350 346 342 340 337 334 331 329 326 324 322 320 318 316 314 312 310 309 307 304 302 299 296 293 290 288 285 283 280 276 274 271 269 266 262
2 1 356 347 338 335 338 344 358 11 3 357 354 351 347 345 343 340 336 334 331 329 327 324 323 321 320 318 316 314 313 311 308 306 303 301 297 294 290 287 284 282 280 278 275 271 268 265 263
341 344 350 346 337 336 339 345 358 3 358 354 352 349 345 343 340 337 334 333 331 329 327 326 325 324 323 322 320 318 316 313 311 308 305 302 299 295 291 287 284 282 280 278 276 273 269 266 263
333 339 346 346 337 336 338 344 354 356 353 350 348 345 342 339 337 334 333 332 331 330 329 328 328 327 326 325 324 322 320 317 314 311 308 305 301 297 293 289 286 283 281 279 277 274 271 268 265
Height
5932 5931 5931 5931 5931 5929 5928 5927 5926 5926 5927 5928 5928 5927 5926 5925 5925 5926 5923 5922 5920 5919 5919 5918 5918 5918 5917 5916 5916 5915 5914 5914 5913 5912 5912 5911 5910 5909 5909 5908 5907 5907 5906 5905 5904 5903 5903 5902 5901
5932 5931 5931 5931 5930 5929 5928 5927 5926 5925 5926 5927 5926 5926 5925 5924 5923 5922 5921 5920 5919 5918 5918 5918 5918 5917 5917 5916 5915 5915 5914 5913 5912 5911 5911 5910 5909 5908 5907 5907 5906 5905 5905 5904 5903 5902 5902 5901 5901
5931 5930 5930 5930 5929 5928 5927 5927 5925 5924 5924 5925 5925 5925 5924 5923 5921 5920 5919 5919 5918 5918 5918 5918 5917 5917 5916 5915 5915 5914 5913 5912 5911 5910 5909 5908 5907 5906 5906 5905 5904 5903 5903 5902 5901 5901 5900 5900 5899
5931 5930 5930 5930 5927 5926 5925 5925 5924 5923 5923 5924 5923 5923 5923 5922 5920 5919 5918 5918 5917 5917 5917 5917 5916 5916 5915 5914 5913 5912 5911 5910 5909 5908 5907 5906 5905 5904 5903 5902 5902 5901 5900 5900 5899 5898 5898 5897 5897
5930 5929 5929 5928 5926 5924 5922 5922 5922 5921 5922 5922 5923 5922 5922 5921 5919 5918 5917 5917 5917 5916 5916 5916 5915 5914 5913 5912 5911 5910 5909 5908 5907 5906 5904 5903 5902 5901 5900 5899 5898 5898 5897 5897 5896 5895 5895 5894 5894
5929 5928 5928 5927 5925 5921 5920 5919 5919 5919 5920 5920 5921 5921 5920 5920 5918 5917 5916 5915 5915 5915 5914 5914 5913 5912 5911 5910 5908 5907 5906 5905 5904 5902 5901 5900 5899 5898 5896 5895 5894 5894 5893 5893 5892 5892 5891 5891 5891
5928 5927 5927 5926 5922 5919 5919 5918 5918 5918 5918 5918 5919 5918 5917 5917 5917 5916 5914 5914 5914 5913 5912 5911 5910 5909 5908 5907 5905 5904 5903 5901 5900 5899 5897 5896 5895 5894 5892 5891 5890 5889 5888 5888 5887 5887 5887 5886 5886
5925 5926 5924 5922 5919 5917 5917 5916 5916 5916 5915 5916 5916 5915 5913 5913 5913 5913 5912 5912 5911 5911 5910 5909 5908 5906 5905 5903 5902 5901 5899 5897 5896 5895 5893 5892 5891 5889 5888 5886 5885 5884 5883 5883 5882 5881 5881 5881 5881
5921 5923 5920 5918 5915 5914 5913 5914 5913 5913 5912 5912 5912 5911 5910 5910 5910 5910 5909 5909 5909 5908 5907 5906 5904 5903 5901 5899 5898 5897 5895 5894 5892 5891 5889 5887 5886 5884 5883 5881 5880 5879 5878 5877 5876 5875 5874 5874 5874
5917 5918 5917 5914 5912 5910 5909 5910 5910 5909 5909 5908 5908 5908 5907 5906 5905 5905 5905 5905 5905 5905 5903 5902 5900 5899 5897 5895 5894 5893 5891 5889 5888 5886 5884 5882 5881 5879 5878 5876 5874 5873 5872 5870 5869 5868 5867 5867 5867
5911 5913 5912 5909 5907 5906 5906 5906 5906 5906 5905 5905 5904 5905 5904 5902 5900 5900 5899 5899 5900 5900 5899 5897 5895 5894 5892 5890 5889 5887 5886 5884 5883 5881 5879 5877 5875 5873 5872 5870 5868 5867 5865 5864 5862 5861 5860 5859 5859
5906 5908 5907 5905 5904 5903 5902 5903 5903 5902 5902 5901 5900 5900 5900 5898 5896 5894 5894 5893 5893 5894 5894 5893 5891 5889 5887 5885 5884 5882 5881 5879 5877 5876 5874 5871 5869 5867 5866 5863 5862 5860 5859 5857 5856 5854 5853 5852 5852
5899 5900 5900 5899 5899 5898 5899 5899 5899 5898 5898 5897 5896 5894 5894 5893 5892 5891 5890 5889 5888 5888 5887 5887 5885 5883 5881 5879 5877 5875 5874 5873 5871 5870 5868 5865 5863 5861 5859 5857 5855 5853 5851 5850 5849 5848 5847 5846 5846
5892 5893 5893 5893 5894 5894 5895 5896 5896 5895 5894 5893 5891 5890 5889 5888 5887 5886 5885 5884 5883 5882 5882 5881 5879 5876 5874 5872 5871 5869 5867 5865 5863 5862 5860 5858 5855 5853 5851 5849 5847 5845 5844 5843 5842 5841 5841 5839 5839
5886 5888 5889 5889 5890 5890 5892 5892 5891 5890 5890 5889 5887 5886 5885 5884 5883 5882 5881 5880 5878 5877 5876 5874 5872 5870 5868 5866 5864 5862 5860 5858 5856 5853 5851 5849 5847 5845 5844 5842 5840 5838 5836 5835 5834 5834 5834 5833 5832
5882 5884 5885 5885 5886 5887 5889 5887 5886 5885 5885 5884 5883 5882 5881 5880 5878 5877 5876 5875 5874 5872 5871 5869 5867 5865 5863 5861 5858 5856 5853 5851 5848 5846 5843 5841 5839 5836 5835 5833 5832 5830 5829 5828 5827 5826 5826 5826 5825
5879 5881 5882 5882 5882 5883 5884 5883 5882 5881 5880 5879 5878 5878 5877 5876 5875 5873 5872 5870 5869 5867 5865 5863 5861 5859 5857 5854 5852 5849 5846 5843 5841 5838 5836 5833 5830 5828 5826 5824 5823 5821 5820 5819 5819 5818 5818 5818 5817
5878 5879 5879 5880 5879 5879 5879 5878 5877 5876 5874 5873 5873 5874 5873 5873 5871 5870 5868 5866 5864 5862 5860 5857 5855 5853 5850 5847 5844 5841 5838 5835 5832 5830 5827 5825 5822 5820 5818 5816 5814 5813 5812 5811 5810 5810 5810 5810 5810
5876 5876 5876 5876 5875 5875 5873 5872 5871 5870 5868 5868 5869 5869 5869 5869 5868 5866 5864 5862 5860 5858 5855 5852 5849 5846 5843 5839 5836 5833 5830 5827 5824 5821 5818 5816 5813 5811 5809 5807 5805 5804 5803 5803 5802 5802 5802 5802 5801
5873 5873 5873 5874 5873 5871 5870 5869 5867 5865 5863 5864 5865 5866 5866 5866 5864 5862 5860 5858 5856 5853 5850 5847 5844 5840 5836 5832 5828 5825 5822 5819 5815 5812 5809 5807 5804 5802 5800 5798 5796 5795 5794 5794 5793 5793 5793 5793 5793
5871 5871 5871 5870 5870 5869 5867 5865 5862 5861 5861 5860 5862 5862 5863 5862 5861 5859 5857 5854 5852 5849 5846 5842 5838 5834 5829 5825 5821 5817 5813 5809 5806 5802 5799 5797 5794 5792 5790 5788 5787 5786 5785 5784 5783 5783 5784 5784 5784
5870 5870 5869 5867 5867 5866 5865 5862 5860 5858 5857 5857 5859 5859 5860 5859 5857 5855 5853 5850 5847 5844 5840 5836 5832 5828 5823 5819 5814 5810 5806 5801 5797 5793 5790 5786 5783 5781 5779 5778 5777 5775 5774 5774 5773 5773 5773 5774 5775
5869 5869 5868 5867 5866 5865 5864 5862 5859 5857 5857 5857 5858 5858 5857 5856 5854 5851 5848 5845 5842 5838 5835 5831 5826 5822 5817 5812 5807 5802 5798 5793 5789 5785 5781 5777 5774 5771 5769 5768 5767 5765 5764 5763 5763 5763 5763 5763 5765
5868 5868 5868 5867 5867 5866 5865 5863 5861 5858 5858 5858 5857 5856 5855 5852 5850 5847 5844 5841 5837 5833 5829 5824 5820 5815 5810 5804 5799 5794 5790 5785 5780 5776 5772 5768 5764 5761 5759 5757 5756 5755 5754 5753 5752 5752 5753 5753 5754
5868 5868 5868 5867 5866 5866 5865 5863 5862 5859 5858 5857 5855 5854 5851 5849 5846 5843 5840 5836 5831 5827 5822 5817 5812 5807 5802 5797 5791 5786 5781 5777 5772 5767 5763 5759 5755 5751 5748 5746 5745 5744 5743 5742 5741 5741 5742 5743 5744
5868 5868 5868 5867 5865 5864 5863 5861 5861 5859 5857 5855 5852 5850 5847 5844 5841 5838 5834 5830 5825 5820 5815 5810 5805 5800 5794 5789 5783 5778 5773 5768 5763 5758 5754 5750 5745 5741 5738 5735 5733 5732 5731 5731 5731 5731 5731 5732 5733
5868 5866 5866 5864 5863 5862 5861 5860 5858 5856 5854 5851 5848 5845 5842 5839 5836 5832 5828 5824 5819 5814 5809 5803 5798 5793 5787 5781 5776 5770 5765 5759 5754 5749 5744 5740 5735 5731 5727 5724 5721 5720 5719 5718 5718 5719 5719 5720 5722
5867 5866 5864 5863 5861 5860 5859 5857 5856 5854 5851 5848 5845 5842 5839 5835 5831 5827 5823 5818 5813 5808 5802 5797 5791 5785 5779 5773 5767 5761 5756 5750 5744 5739 5734 5729 5724 5720 5716 5712 5709 5707 5705 5705 5704 5705 5706 5707 5709
5866 5865 5863 5861 5859 5858 5856 5857 5853 5851 5848 5845 5841 5838 5835 5831 5827 5823 5819 5814 5808 5802 5796 5790 5784 5777 5771 5765 5759 5753 5746 5740 5734 5729 5723 5718 5713 5708 5704 5700 5697 5694 5692 5691 5690 5690 5691 5693 5694
5864 5862 5861 5860 5858 5855 5853 5855 5850 5848 5844 5841 5838 5835 5831 5828 5824 5820 5815 5809 5803 5797 5791 5784 5777 5771 5764 5757 5750 5744 5737 5731 5724 5718 5712 5706 5701 5696 5691 5688 5684 5681 5679 5677 5676 5675 5675 5676 5678